Location: *
(45.4590°N, 16.3650°E)
Time: 06:06:46
(UTC+00:00)

BREEZE-M DEB (TANK) - Pass Details

Date: 17 January 2020
Orbit: 323 x 14856 km, 49.5° (Epoch: 23 February)

Event Time Altitude Azimuth Distance (km) Brightness Sun altitude
Rises 17:37:19 0° 234° (SW) 2,268 7.3 -20.2°
Reaches altitude 10° 17:39:16 10° 228° (SW) 1,252 5.7 -20.6°
Enters shadow 17:40:36 30° 211° (SSW) 621 3.6 -20.8°
